ALOUETTE 1 (S-27) 1 00424U 62049A 09183.23309862 .00000038 00000-0 33933-4 0 1689 2 00424 80.4648 260.2617 0023492 10.9279 349.2362 13.68716009333755 IUE 1 10637U 78012A 09180.04751494 -.00000256 00000-0 10000-3 0 5092 2 10637 42.9893 15.1676 1539974 153.4350 215.3862 1.00055228 67574 IRAS 1 13777U 83004A 09182.58024529 -.00000276 00000-0 -15711-3 0 8966 2 13777 99.0664 15.7073 0016223 157.2384 202.9501 14.00073566 19616 AKEBONO (EXOS-D) 1 19822U 89016A 09183.18834148 .00004835 35341-6 16050-3 0 2703 2 19822 75.0985 268.8096 2698034 290.0184 43.1963 10.00153259596960 INTERCOSMOS 24 1 20261U 89080A 09182.31988754 -.00000054 00000-0 -17679-4 0 9558 2 20261 82.5906 90.0174 1214316 307.7189 41.9717 12.53434727901352 COBE 1 20322U 89089A 09182.45389122 -.00000216 00000-0 -10766-3 0 9395 2 20322 98.9872 184.5341 0009745 82.4327 277.7962 14.04369513 5170 HST 1 20580U 90037B 09180.01656090 .00000269 00000-0 78522-5 0 4136 2 20580 28.4708 25.0868 0003353 48.7292 311.3646 15.00811505851634 ROSAT 1 20638U 90049A 09182.99704247 .00003679 00000-0 51284-4 0 7136 2 20638 52.9957 3.2711 0004561 46.8641 313.2749 15.59821439 62124 CRRES 1 20712U 90065A 09181.92073667 .00000081 00000-0 10179-3 0 9160 2 20712 17.9158 70.5955 7127434 72.5351 348.9260 2.42726515157422 SARA 1 21578U 91050E 09182.77274698 .00000086 00000-0 32928-4 0 5716 2 21578 98.2243 153.5606 0004347 120.1167 240.0458 14.50456558946538 UARS 1 21701U 91063B 09182.13616330 .00004932 00000-0 69811-4 0 7033 2 21701 56.9713 303.3128 0074558 195.5120 164.3660 15.55433579981399 SAMPEX 1 22012U 92038A 09182.76678603 .00002316 00000-0 57031-4 0 9400 2 22012 81.6377 286.8850 0045048 219.1268 140.6716 15.38990059936651 ORBVIEW 1 (MICROLAB) 1 23547U 95017C 09182.41696700 .00000057 00000-0 28056-4 0 9937 2 23547 69.9794 172.2373 0013566 247.2443 112.7240 14.55495092754680 RXTE (XTE) 1 23757U 95074A 09181.65538993 .00000864 00000-0 14643-4 0 8995 2 23757 22.9860 299.3587 0008145 154.4009 205.6857 15.27273441747835 FAST 1 24285U 96049A 09182.58534916 .00001591 00000-0 13725-3 0 7872 2 24285 82.9677 51.4066 1998608 139.7805 236.9805 11.26260704520153 TRACE 1 25280U 98020A 09183.19653111 .00000653 00000-0 58863-4 0 2300 2 25280 97.6798 32.4053 0022153 199.8200 160.2163 14.98825271613303 SAFIR 2 1 25399U 98043F 09183.16252609 -.00000036 00000-0 20731-5 0 3727 2 25399 98.3315 212.0737 0002512 126.5534 233.5871 14.23937509570483 SWAS 1 25560U 98071A 09182.96499139 .00000109 00000-0 21710-4 0 9853 2 25560 69.9023 328.4532 0010811 226.0684 133.9590 14.86875562572562 ASTRID 2 1 25568U 98072B 09182.48504130 .00000038 00000-0 25522-4 0 944 2 25568 82.9482 328.8685 0026057 19.0962 341.1164 13.71997966528629 ORSTED 1 25635U 99008B 09183.15600203 -.00000021 00000-0 21776-5 0 6747 2 25635 96.4470 10.7585 0144361 141.2072 219.9596 14.45818194545904 SUNSAT (SO-35) 1 25636U 99008C 09183.09686819 .00000009 00000-0 10280-4 0 3477 2 25636 96.4492 3.5571 0147905 174.1131 186.1852 14.43467116545252 WIRE 1 25646U 99011A 09182.77684224 .00005568 00000-0 77293-4 0 8426 2 25646 97.2735 87.7989 0008806 74.6676 285.5549 15.57419352577351 ABRIXAS 1 25721U 99022A 09182.67264416 .00000231 00000-0 24941-4 0 6015 2 25721 48.4392 246.7777 0020794 260.4510 99.4065 15.20225988562669 TERRIERS 1 25735U 99026A 09182.57474275 .00000172 00000-0 99057-5 0 7532 2 25735 97.2202 55.1296 0007909 16.5618 343.5877 15.23930877561077 FUSE 1 1 25791U 99035A 09182.21271295 .00000224 00000-0 13134-4 0 4695 2 25791 24.9855 241.9392 0010161 63.5821 296.5726 14.41796308528424 CXO 1 25867U 99040B 09182.37500000 -.00000131 00000-0 10000-3 0 3405 2 25867 65.5061 68.6192 7552723 275.8119 0.6721 0.37805774 5067 CLEMENTINE 1 25978U 99064B 09182.39176430 .00000270 00000-0 37920-4 0 6791 2 25978 98.1417 256.9400 0011721 82.4001 277.8502 14.85498392518026 XMM-NEWTON 1 25989U 99066A 09181.95833333 .00000236 00000-0 10000-3 0 6924 2 25989 59.0347 99.0423 5863784 111.8825 350.1512 0.50125333 6305 TERRA 1 25994U 99068A 09183.14923991 .00000042 00000-0 19293-4 0 8274 2 25994 98.2004 257.9182 0001191 71.8028 288.3315 14.57127803507332 ACRIMSAT 1 26033U 99070B 09183.16087964 -.00000022 00000-0 47952-5 0 7020 2 26033 97.9758 65.4562 0029291 147.7387 212.5613 14.60551534507735 IMAGE 1 26113U 00017A 09180.95900664 .00000281 00000-0 00000-0 0 8426 2 26113 91.2856 212.6453 7390706 282.6667 10.5991 1.68638423 57040 CLUSTER II-FM6 1 26410U 00041A 09182.83333333 .00001207 00000-0 00000-0 0 3485 2 26410 113.7069 194.2418 8541417 36.3862 355.7291 0.42041033 4664 CLUSTER II-FM7 1 26411U 00041B 09182.83333333 .00001208 00000-0 00000-0 0 3612 2 26411 113.7087 194.2565 8538249 36.4437 355.8646 0.42040803 4744 CLUSTER II-FM5 1 26463U 00045A 09182.83333333 .00001102 00000-0 00000-0 0 3470 2 26463 116.2037 196.6716 8407563 34.5676 356.2209 0.42040722 5242 CLUSTER II-FM8 1 26464U 00045B 09182.83333333 .00000889 00000-0 00000-0 0 3393 2 26464 108.3052 186.3697 8496366 31.3250 355.9561 0.42040322 4622 MEGSAT-1 1 26546U 00057B 09183.08415043 -.00000039 00000-0 13623-4 0 7148 2 26546 64.5584 24.2956 0049920 267.7717 91.7693 14.84216677474394 HETE-2 1 26561U 00061A 09181.57307403 .00000888 00000-0 69226-5 0 4501 2 26561 1.9470 120.3515 0024302 195.9668 163.9607 14.96056703477118 MUNIN 1 26621U 00075C 09182.04340375 -.00001387 00000-0 -12413-2 0 5939 2 26621 95.4011 190.4098 0717850 0.3571 359.7926 13.03697416409514 ODIN 1 26702U 01007A 09183.07015680 .00000444 00000-0 44957-4 0 7367 2 26702 97.7074 203.2529 0005046 67.3780 292.7991 14.95744902455684 TIMED 1 26998U 01055B 09183.03609166 .00000315 00000-0 42090-4 0 3315 2 26998 74.0749 320.6497 0001032 36.8584 323.2682 14.84081498409723 RHESSI 1 27370U 02004A 09183.09333860 .00000242 00000-0 26184-4 0 868 2 27370 38.0382 56.6799 0015735 23.9957 336.1535 15.02151206405977 INTEGRAL 1 27540U 02048A 09181.91666667 -.00000728 00000-0 10000-3 0 8168 2 27540 86.4624 359.8562 8402837 263.2934 357.6469 0.33414968 4348 FEDSAT 1 27598U 02056B 09182.20309728 -.00000018 00000-0 96934-5 0 8204 2 27598 98.3779 233.4070 0009014 187.0291 173.0758 14.28010980341245 WEOS 1 27599U 02056C 09183.22803522 -.00000068 00000-0 -10422-4 0 8303 2 27599 98.3996 239.8319 0009779 196.0046 164.0823 14.28563654341513 MICRO LABSAT 1 27600U 02056D 09183.17676354 .00000107 00000-0 58943-4 0 8033 2 27600 98.3924 239.4183 0010489 200.9412 159.1352 14.28861918341587 CORIOLIS 1 27640U 03001A 09182.46966920 .00000017 00000-0 29624-4 0 9866 2 27640 98.7486 188.3400 0014625 18.1159 342.0537 14.18344590335688 CHIPSAT 1 27643U 03002B 09182.55508029 -.00000421 00000-0 -35081-4 0 1117 2 27643 94.0208 315.6510 0013918 69.6445 290.6013 14.97266093353115 SORCE 1 27651U 03004A 09182.55584087 .00000006 00000-0 16626-4 0 9407 2 27651 39.9960 234.3332 0025763 83.7030 276.6690 14.82188117348421 GALEX 1 27783U 03017A 09182.36539305 .00000129 00000-0 49064-5 0 7024 2 27783 28.9980 172.7744 0004326 231.7302 128.2901 14.59752480329855 MOST 1 27843U 03031D 09182.16506523 -.00000023 00000-0 94986-5 0 6050 2 27843 98.7177 189.7746 0010784 110.1147 250.1186 14.20115586311160 QUAKESAT 1 27845U 03031F 09182.66550277 .00000032 00000-0 35409-4 0 5874 2 27845 98.7187 191.0379 0009890 116.1226 244.0966 14.20276918311223 AAU CUBESAT 1 27846U 03031G 09181.97832705 .00000026 00000-0 32061-4 0 5231 2 27846 98.7051 191.9122 0010355 82.0597 278.1760 14.20984961311302 SCISAT 1 1 27858U 03036A 09182.40997126 .00000092 00000-0 18927-4 0 7787 2 27858 73.9331 153.7434 0009026 212.1802 147.8831 14.74807593316817 KAISTSAT 4 1 27945U 03042G 09181.20521826 -.00000046 00000-0 -86006-7 0 7235 2 27945 97.9469 56.6786 0013663 99.0882 261.1854 14.63147061307488 GP-B 1 28230U 04014A 09183.01791481 -.00000012 00000-0 -40254-5 0 5425 2 28230 89.9412 157.8575 0003665 83.9740 276.1951 14.75977287279960 DEMETER 1 28368U 04025C 09183.18501532 -.00000438 00000-0 -64726-4 0 7066 2 28368 97.9683 248.3851 0001446 94.9559 265.1826 14.70204503267920 DOUBLESTAR (TC-2) 1 28382U 04029A 09182.40397571 -.00000901 00000-0 -13099-1 0 945 2 28382 89.3404 335.6279 7271364 284.1228 206.4297 2.11748969 37945 SWIFT 1 28485U 04047A 09182.85405705 .00000514 00000-0 10293-4 0 3348 2 28485 20.5573 99.9172 0014324 235.4642 124.4487 14.92550974251866 SUZAKU (ASTRO-EII) 1 28773U 05025A 09183.19278957 .00000237 00000-0 12526-4 0 283 2 28773 31.4047 174.0737 0006527 7.5892 352.4849 15.00803636218466 AKARI (ASTRO-F) 1 28939U 06005A 09182.07021754 .00000029 00000-0 16494-4 0 279 2 28939 98.2450 185.1845 0009123 132.2041 227.9950 14.57547645178111 FORMOSAT-3 FM6 1 29047U 06011A 09182.86861584 -.00000242 00000-0 -81326-4 0 9899 2 29047 71.9809 351.3575 0051199 119.4058 241.2168 14.27108461169824 FORMOSAT-3 FM1 1 29048U 06011B 09182.33968073 .00000390 00000-0 17471-3 0 367 2 29048 71.9702 267.8846 0044312 68.9533 291.6302 14.27116781172225 FORMOSAT-3 FM5 1 29049U 06011C 09183.12769221 .00000361 00000-0 16364-3 0 9772 2 29049 72.0217 55.4330 0035243 132.4739 227.9356 14.27128138168119 FORMOSAT-3 FM3 1 29050U 06011D 09183.19933222 .00001098 00000-0 26646-3 0 2613 2 29050 72.0082 232.4271 0052638 14.2094 346.0474 14.54049654173429 FORMOSAT-3 FM4 1 29051U 06011E 09182.87869327 .00000372 00000-0 16522-3 0 391 2 29051 72.0077 324.9180 0069961 359.5837 0.5218 14.27121457170660 FORMOSAT-3 FM2 1 29052U 06011F 09182.15581588 .00000360 00000-0 16273-3 0 551 2 29052 72.0367 28.4572 0040531 102.9693 257.5957 14.27118414168868 CLOUDSAT 1 29107U 06016A 09182.48550965 .00000093 00000-0 30706-4 0 201 2 29107 98.1776 126.7317 0000975 96.7518 263.3797 14.57130759168951 CALIPSO 1 29108U 06016B 09183.37839309 .00000102 00000-0 32579-4 0 181 2 29108 98.1780 127.6592 0001252 80.2304 279.9045 14.57133159169061 HINODE (SOLAR-B) 1 29479U 06041A 09182.55999903 .00000079 00000-0 24573-4 0 8935 2 29479 98.0835 186.8481 0015363 355.5610 4.5452 14.62906721148084 SJ-6C 1 29505U 06046A 09183.21296587 .00000023 00000-0 78605-5 0 265 2 29505 97.6867 189.6576 0004300 42.2540 317.8998 14.90658301146320 SJ-6D 1 29506U 06046B 09183.12358808 .00000295 00000-0 36226-4 0 185 2 29506 97.6891 188.6625 0003710 77.5743 282.5898 14.89965923146249 COROT 1 29678U 06063A 09182.50846182 -.00000070 00000-0 -57006-4 0 8294 2 29678 89.9221 11.9618 0007088 99.1946 261.0015 13.98094068128118 AIM 1 31304U 07015A 09183.24900062 .00000900 00000-0 93963-4 0 7449 2 31304 97.8018 283.7547 0011865 165.0306 195.1266 14.92148509119042 FGRST (GLAST) 1 33053U 08029A 09182.51433407 .00000278 00000-0 00000+0 0 2775 2 33053 25.5848 250.1754 0014024 302.1920 57.7238 15.04939301 58044 KORONAS-FOTON 1 33504U 09003A 09182.51531622 .00000160 00000-0 90775-5 0 1220 2 33504 82.4776 211.1016 0017734 33.4684 326.7649 15.05285924 22869